Regional Weather Roundup
Issued by NWS Green Bay, WI

Home | Current Version | Previous Version | Graphics & Text | Print | Product List | Glossary Off
Versions: 1 2 3 4 5 6 7 8 9 10 11 12 13 14 15 16 17 18 19 20 21 22 23 24 25 26 27 28 29 30 31 32 33 34 35 36 37 38 39 40 41 42 43 44 45 46 47 48 49 50

000
ASUS43 KGRB 301500
RWRGRB

NORTH-CENTRAL AND NORTHEAST WISCONSIN REGIONAL WEATHER ROUNDUP
NATIONAL WEATHER SERVICE GREEN BAY WI
1000 AM CDT SAT APR 30 2016

WIZ005-009-010>012-018-019-301600-
NORTH CENTRAL WISCONSIN

CITY           SKY/WX    TMP DP  RH WIND       PRES   REMARKS
IRONWOOD         N/A     48  32  53 E12G20    30.20S
MANITOWISH WTR NOT AVBL
ARBOR VITAE    NOT AVBL
EAGLE RIVER    NOT AVBL
LAND O LAKES   NOT AVBL
RHINELANDER    CLOUDY    48  31  51 E9        30.18S
PHILLIPS       CLOUDY    48  32  53 E14       30.16F
ANTIGO         NOT AVBL
TOMAHAWK       NOT AVBL
MERRILL        CLOUDY    50  33  51 E13       30.15S
$$

WIZ013-073-301600-
NORTHEAST WISCONSIN

CITY           SKY/WX    TMP DP  RH WIND       PRES   REMARKS
IRON MOUNTAIN  CLOUDY    52  32  46 E7        30.18F
MARINETTE      CLOUDY    46  34  61 E15G22    30.18S
$$

WIZ017-030-035>037-045-301600-
CENTRAL WISCONSIN

CITY           SKY/WX    TMP DP  RH WIND       PRES   REMARKS
MEDFORD        NOT AVBL
WAUSAU         CLOUDY    52  32  46 NE9G18    30.11F
MOSINEE        SUNNY     46  32  57 E14G21    30.13F
MARSHFIELD     CLOUDY    48  33  56 E15       30.10S
WISC RAPIDS    CLOUDY    48  31  51 E14G22    30.11F
STEVENS POINT  NOT AVBL
WAUPACA        CLOUDY    48  36  63 NE8       30.14R
SHAWANO        PTSUNNY   50  36  58 NE10      30.16S
CLINTONVILLE   NOT AVBL
WAUTOMA        NOT AVBL
$$

WIZ038-039-048-051-301600-
FOX VALLEY

CITY           SKY/WX    TMP DP  RH WIND       PRES   REMARKS
NWS GREEN BAY  PTSUNNY   48  40  73 NE12      30.16R
APPLETON       PTSUNNY   46  34  61 NE12G17   30.12R
OSHKOSH        PTSUNNY   48  38  68 E13       30.11S
FOND DU LAC    CLOUDY    50  39  66 E12       30.11R
$$

WIZ022-050-052-301600-
EAST CENTRAL WISCONSIN

CITY           SKY/WX    TMP DP  RH WIND       PRES   REMARKS
EPHRAIM        NOT AVBL
STURGEON BAY   CLOUDY    46  34  61 NE10      30.19F
MANITOWOC      NOT AVBL
SHEBOYGAN      PTSUNNY   48  38  68 E10       30.13R
$$

LMZ563-521-522-541>543-301600-
LAKESHORE

STATION/POSITION TIME  TEMP    WIND        PRES    VSBY  WAVE
                       AIR SEA DIR/SP/G                  HT/PER
                 (UTC) (F)     (DEG/KT/KT) (MB)    (MI)  (FT/S)
SHEBOYGAN LKSHOR 1400   41      10/ 10/ 11 1021.0F
KEWAUNEE LKSHORE 1400   42      30/  9/ 11 1020.6F
ALGOMA MARINA    1415           40/ 14/ 16   N/A
NORTHPORT PIER   1400   45      40/  7/ 10 1022.4S
CHAMBERS ISLAND  1400   40      20/ 13/ 15 1022.4F
MENOMINEE LKSHOR 1400   40      30/ 14/ 17 1020.8F
$$




USA.gov is the U.S. government's official web portal to all federal, state and local government web resources and services.